Погода в Баговской

Россия / Краснодарский край     44°10′23″N   40°37′04″E
темп.,
°C
ветер,
м/с
пор.,
м/с
влажн.,
%
обл.,
%
осадки,
мм/ч
давл.,
гПа
погр.,
м
17 августа, ср
ср1700:00+17зюз22973 0.7 101339
03:00+17ю11950 0.7 101311
06:00+17ююз11941 0.0 101211
09:00+23с11730 0.0 1012427
12:00+27ссв226113 0.3 1011966
15:00+28з225633 3.0 10101064
18:00+22ююз00876 1.9 101113
21:00+19ю21930 2.0 101115
18 августа, чт
чт1800:00+18ю22930 0.1 101119
03:00+17ююз11920 0.1 101011
06:00+17ююз11944 1.0 101118
09:00+23всв21744 1.1 1011511
12:00+26с22679 1.3 10101126
15:00+24з128375 9.6 1009119
18:00+21ююз118991 4.3 100914
21:00+18юв119522 5.7 101023
19 августа, пт
пт1900:00+17ю229518 0.1 101022
03:00+16ююз229410 0.1 101024
06:00+16ююз2193100 0.0 101020
09:00+20юз1280100 0.0 1010146
12:00+26с325675 0.1 10091223
15:00+22зсз228759 5.8 1010209
18:00+21в129112 5.5 100965
21:00+18ю229489 7.0 101016
20 августа, сб
сб2000:00+16юз2194100 0.6 101016
03:00+16ююз1192100 0.9 101111
06:00+16ююз2193100 0.0 101221
09:00+22с116852 0.0 1011347
12:00+26ссв325693 0.1 10101348
15:00+19сз1196100 13.2 101239
18:00+21юв1293100 1.0 1010142
21:00+18юв1195100 1.0 101111
21 августа, вс
вс2100:00+16ю1194100 0.0 101111
03:00+17вюв1190100 0.0 101019
06:00+16ююз22875 0.0 101032
09:00+25с225497 0.0 1008471
12:00+27ссв21505 0.0 10081191
15:00+28св23476 0.0 10071611
18:00+25в22644 0.0 100737
21:00+19юв13730 0.0 100769